Regional Weather Roundup
Issued by NWS

Home | Current Version | Previous Version | Graphics & Text | Print | Product List | Glossary On
Versions: 1 2 3 4 5 6 7 8 9 10 11 12 13 14 15 16 17 18 19 20 21 22 23 24 25 26 27 28 29 30 31 32 33 34 35 36 37 38 39 40 41 42 43 44 45 46 47 48 49 50
000
ASUS43 KFSD 300002
RWRSD

WEATHER ROUNDUP FOR SOUTH DAKOTA
NATIONAL WEATHER SERVICE SIOUX FALLS SD
700 PM CDT FRI MAY 29 2015

NOTE: "FAIR" INDICATES FEW OR NO CLOUDS BELOW 12,000 FEET WITH NO
SIGNIFICANT WEATHER AND/OR OBSTRUCTIONS TO VISIBILITY.


SDZ001>005-009-010-012>017-300100-
NORTHWEST AND NORTH CENTRAL SOUTH DAKOTA

CITY           SKY/WX    TMP DP  RH WIND       PRES   REMARKS
BUFFALO          N/A     56  39  53 NE10      30.20F
FAITH            N/A     54  36  50 N13       30.26S
MOBRIDGE       PTSUNNY   56  37  49 N13       30.22S
$$

SDZ012>016-024>037-041>051-057-063-072>074-300100-
SOUTHWEST AND SOUTH CENTRAL SOUTH DAKOTA

CITY           SKY/WX    TMP DP  RH WIND       PRES   REMARKS
RAPID CTY ARPT PTSUNNY   57  41  55 N14       30.26F
PIERRE         MOSUNNY   55  40  56 N18G28    30.21S
CUSTER         CLOUDY    45  42  89 S6        30.29R
ELLSWORTH AFB  PTSUNNY   57  40  53 N10       30.26S
PHILIP         PTSUNNY   55  39  54 N14       30.25S
PINE RIDGE     CLOUDY    52  43  71 N8        30.28S
WINNER         CLOUDY    52  44  74 N14       30.22R
$$

SDZ004>011-016>023-039-040-300100-
NORTHEAST SOUTH DAKOTA

CITY           SKY/WX    TMP DP  RH WIND       PRES   REMARKS
ABERDEEN       CLOUDY    55  40  56 N16       30.17R
WATERTOWN      PTSUNNY   49  41  74 N21G28    30.10R
BROOKINGS      CLOUDY    48  43  81 N18       30.10R
SISSETON         N/A     51  43  74 N26       30.12S
$$

SDZ017-020-022-023-036>040-048>070-300100-
SOUTHEAST SOUTH DAKOTA

CITY           SKY/WX    TMP DP  RH WIND       PRES   REMARKS
SIOUX FALLS    CLOUDY    52  47  83 N17G24    30.06R
HURON          CLOUDY    52  43  71 N17G29    30.14S
CHAMBERLAIN    CLOUDY    51  44  76 NW15      30.19R
MITCHELL       CLOUDY    52  46  80 N22G28    30.14R
YANKTON        CLOUDY    54  48  82 N22G29    30.06R
$$

ABBREVIATIONS USED IN REMARKS
   TC - TEMPERATURE IN CELSIUS
  WCI - WIND CHILL INDEX
   HX - HEAT INDEX
  VSB - VISIBILITY



USA.gov is the U.S. government's official web portal to all federal, state and local government web resources and services.